User: anonymous   Login
Location: Unspecified
(0.0000°N, 0.0000°E)
Time: 22:14:34
(UTC+00:00)
Language:

OBJECT BB - Orbit

View from above orbital plane
View from above orbital plane
View from above satellite
View from above satellite

Ground track
Ground track

The orbit is defined by the following mean orbital elements,

1 61784U          26145.62368234 +.00000000 +00000-0 +64818-3 0 00001
2 61784  97.2987  21.0116 0008748  20.5558 339.6047 15.55441285    05
Epoch (UTC): 25 May 2026 14:58:06
Eccentricity: 0.0008748
inclination: 97.2987°
perigee height: 395 km
apogee height: 407 km
right ascension of ascending node: 21.0116°
argument of perigee: 20.5558°
revolutions per day: 15.55441285
mean anomaly at epoch: 339.6047°

The dashed part of the orbit path shows where the satellite is in the earth's shadow,  

DLR